| time (UTC) | temp C | wind direction | speed KPH | gust KPH | rain 1hr cm | rain 24hr cm | rain mn cm | humidity % | barometer mb |
| 20260504030126 | 6 | 34 | 0.0 | 0.0 | 0.00 | 0.00 | 0.00 | 75 | 1014.1 |
| 20260504025622 | 7 | 35 | 0.0 | 0.0 | 0.00 | 0.00 | 0.00 | 76 | 1014.0 |
| 20260504025119 | 7 | 35 | 0.0 | 0.0 | 0.00 | 0.00 | 0.00 | 75 | 1014.2 |
| 20260504024617 | 7 | 35 | 0.0 | 0.0 | 0.00 | 0.00 | 0.00 | 68 | 1014.1 |
| 20260504024113 | 7 | 35 | 0.0 | 0.0 | 0.00 | 0.00 | 0.00 | 69 | 1014.0 |
| 20260504023610 | 7 | 35 | 0.0 | 0.0 | 0.00 | 0.00 | 0.00 | 66 | 1014.1 |
| 20260504023105 | 7 | 35 | 1.6 | 1.6 | 0.00 | 0.00 | 0.00 | 68 | 1014.2 |
| 20260504022602 | 7 | 34 | 0.0 | 0.0 | 0.00 | 0.00 | 0.00 | 71 | 1014.0 |
| 20260504022058 | 8 | 34 | 0.0 | 0.0 | 0.00 | 0.00 | 0.00 | 70 | 1014.2 |
| 20260504021556 | 8 | 34 | 0.0 | 0.0 | 0.00 | 0.00 | 0.00 | 67 | 1014.1 |
| 20260504021053 | 8 | 35 | 0.0 | 0.0 | 0.00 | 0.00 | 0.00 | 61 | 1014.2 |
| 20260504020550 | 8 | 35 | 0.0 | 0.0 | 0.00 | 0.00 | 0.00 | 61 | 1014.0 |
| 20260504020046 | 8 | 34 | 0.0 | 0.0 | 0.00 | 0.00 | 0.00 | 61 | 1014.2 |
| 20260504015542 | 8 | 34 | 0.0 | 0.0 | 0.00 | 0.00 | 0.00 | 60 | 1014.0 |
| 20260504015038 | 10 | 34 | 0.0 | 0.0 | 0.00 | 0.00 | 0.00 | 62 | 1014.1 |
| 20260504014535 | 10 | 34 | 0.0 | 0.0 | 0.00 | 0.00 | 0.00 | 57 | 1014.6 |
| 20260504014032 | 10 | 34 | 0.0 | 0.0 | 0.00 | 0.00 | 0.00 | 58 | 1014.0 |
| 20260504013530 | 10 | 35 | 0.0 | 0.0 | 0.00 | 0.00 | 0.00 | 54 | 1014.0 |
| 20260504013027 | 10 | 35 | 0.0 | 0.0 | 0.00 | 0.00 | 0.00 | 53 | 1014.0 |
| 20260504012524 | 10 | 35 | 0.0 | 0.0 | 0.00 | 0.00 | 0.00 | 53 | 1013.9 |
| 20260504012022 | 11 | 35 | 0.0 | 0.0 | 0.00 | 0.00 | 0.00 | 52 | 1013.9 |
| 20260504011518 | 11 | 35 | 0.0 | 0.0 | 0.00 | 0.00 | 0.00 | 52 | 1013.8 |
| 20260504011014 | 11 | 35 | 0.0 | 0.0 | 0.00 | 0.00 | 0.00 | 52 | 1014.1 |
| 20260504010510 | 11 | 35 | 0.0 | 0.0 | 0.00 | 0.00 | 0.00 | 51 | 1014.0 |
| 20260504010006 | 11 | 35 | 0.0 | 0.0 | 0.00 | 0.00 | 0.00 | 51 | 1014.0 |
| 20260504005503 | 11 | 10 | 0.0 | 0.0 | 0.00 | 0.00 | 0.00 | 51 | 1014.1 |
| 20260504005001 | 11 | 10 | 0.0 | 0.0 | 0.00 | 0.00 | 0.00 | 50 | 1014.0 |
| 20260504004458 | 11 | 9 | 1.6 | 1.6 | 0.00 | 0.00 | 0.00 | 49 | 1014.1 |
| 20260504003955 | 11 | 1 | 1.6 | 1.6 | 0.00 | 0.00 | 0.00 | 49 | 1014.0 |
| 20260504003451 | 12 | 1 | 0.0 | 1.6 | 0.00 | 0.00 | 0.00 | 49 | 1013.9 |
| 20260504002948 | 12 | 8 | 1.6 | 1.6 | 0.00 | 0.00 | 0.00 | 49 | 1013.8 |
| 20260504002445 | 12 | 17 | 0.0 | 0.0 | 0.00 | 0.00 | 0.00 | 48 | 1014.0 |
| 20260504001943 | 12 | 5 | 0.0 | 1.6 | 0.00 | 0.00 | 0.00 | 48 | 1013.8 |
| 20260504001440 | 12 | 345 | 1.6 | 3.2 | 0.00 | 0.00 | 0.00 | 47 | 1013.9 |
| 20260504000936 | 12 | 345 | 3.2 | 3.2 | 0.00 | 0.00 | 0.00 | 47 | 1014.1 |
| 20260504000433 | 12 | 313 | 4.8 | 4.8 | 0.00 | 0.00 | 0.00 | 45 | 1013.8 |
| 20260503235931 | 12 | 2 | 1.6 | 3.2 | 0.00 | 0.00 | 0.00 | 46 | 1013.8 |
| 20260503235428 | 13 | 0 | 0.0 | 1.6 | 0.00 | 0.00 | 0.00 | 45 | 1014.0 |
| 20260503234926 | 12 | 170 | 4.8 | 4.8 | 0.00 | 0.00 | 0.00 | 45 | 1014.0 |
| 20260503234423 | 13 | 48 | 1.6 | 1.6 | 0.00 | 0.00 | 0.00 | 45 | 1013.8 |
| 20260503233921 | 13 | 302 | 3.2 | 3.2 | 0.00 | 0.00 | 0.00 | 45 | 1013.9 |
| 20260503233417 | 13 | 325 | 3.2 | 3.2 | 0.00 | 0.00 | 0.00 | 44 | 1013.8 |
| 20260503232914 | 13 | 237 | 3.2 | 3.2 | 0.00 | 0.00 | 0.00 | 44 | 1013.9 |
| 20260503232411 | 13 | 303 | 4.8 | 4.8 | 0.00 | 0.00 | 0.00 | 46 | 1014.0 |
| 20260503231909 | 13 | 225 | 4.8 | 4.8 | 0.00 | 0.00 | 0.00 | 44 | 1013.7 |
| 20260503231406 | 13 | 352 | 1.6 | 3.2 | 0.00 | 0.00 | 0.00 | 43 | 1014.2 |
| 20260503230902 | 13 | 352 | 0.0 | 1.6 | 0.00 | 0.00 | 0.00 | 45 | 1013.9 |
| 20260503230359 | 13 | 334 | 3.2 | 3.2 | 0.00 | 0.00 | 0.00 | 43 | 1013.8 |
| 20260503225856 | 13 | 289 | 3.2 | 4.8 | 0.00 | 0.00 | 0.00 | 43 | 1013.9 |
| 20260503225352 | 14 | 5 | 4.8 | 4.8 | 0.00 | 0.00 | 0.00 | 41 | 1014.1 |
| 20260503224849 | 13 | 254 | 3.2 | 3.2 | 0.00 | 0.00 | 0.00 | 44 | 1013.8 |
| 20260503224346 | 13 | 295 | 4.8 | 4.8 | 0.00 | 0.00 | 0.00 | 42 | 1013.9 |
| 20260503223843 | 13 | 159 | 6.4 | 8.0 | 0.00 | 0.00 | 0.00 | 41 | 1014.0 |
| 20260503223341 | 13 | 82 | 3.2 | 3.2 | 0.00 | 0.00 | 0.00 | 42 | 1014.1 |
| 20260503222836 | 14 | 283 | 4.8 | 4.8 | 0.00 | 0.00 | 0.00 | 41 | 1014.1 |
| 20260503222335 | 14 | 300 | 3.2 | 4.8 | 0.00 | 0.00 | 0.00 | 42 | 1013.9 |
| 20260503221833 | 14 | 328 | 4.8 | 4.8 | 0.00 | 0.00 | 0.00 | 40 | 1014.0 |
| 20260503221332 | 15 | 286 | 4.8 | 4.8 | 0.00 | 0.00 | 0.00 | 38 | 1014.2 |
| 20260503220827 | 15 | 348 | 1.6 | 1.6 | 0.00 | 0.00 | 0.00 | 39 | 1014.2 |
| 20260503220324 | 14 | 337 | 3.2 | 3.2 | 0.00 | 0.00 | 0.00 | 40 | 1014.0 |
| 20260503215820 | 14 | 244 | 4.8 | 4.8 | 0.00 | 0.00 | 0.00 | 41 | 1014.0 |
| 20260503215318 | 14 | 242 | 8.0 | 8.0 | 0.00 | 0.00 | 0.00 | 40 | 1014.2 |
| 20260503214816 | 14 | 288 | 6.4 | 8.0 | 0.00 | 0.00 | 0.00 | 39 | 1014.3 |
| 20260503214313 | 15 | 258 | 1.6 | 3.2 | 0.00 | 0.00 | 0.00 | 40 | 1014.0 |
| 20260503213810 | 14 | 286 | 1.6 | 1.6 | 0.00 | 0.00 | 0.00 | 40 | 1013.8 |
| 20260503213307 | 15 | 266 | 4.8 | 8.0 | 0.00 | 0.00 | 0.00 | 39 | 1013.9 |
| 20260503212804 | 15 | 335 | 8.0 | 11.3 | 0.00 | 0.00 | 0.00 | 37 | 1013.8 |
| 20260503212302 | 15 | 322 | 3.2 | 3.2 | 0.00 | 0.00 | 0.00 | 38 | 1013.5 |
| 20260503211800 | 15 | 276 | 6.4 | 8.0 | 0.00 | 0.00 | 0.00 | 38 | 1013.7 |
| 20260503211255 | 15 | 249 | 4.8 | 8.0 | 0.00 | 0.00 | 0.00 | 42 | 1013.8 |
| 20260503210755 | 15 | 92 | 3.2 | 3.2 | 0.00 | 0.00 | 0.00 | 40 | 1013.7 |
| 20260503210254 | 15 | 317 | 4.8 | 4.8 | 0.00 | 0.00 | 0.00 | 40 | 1013.9 |
| 20260503205748 | 15 | 289 | 4.8 | 4.8 | 0.00 | 0.00 | 0.00 | 40 | 1014.0 |
| 20260503205245 | 15 | 297 | 3.2 | 3.2 | 0.00 | 0.00 | 0.00 | 42 | 1013.9 |
| 20260503204741 | 14 | 309 | 4.8 | 8.0 | 0.00 | 0.00 | 0.00 | 42 | 1014.1 |
| 20260503204239 | 13 | 273 | 4.8 | 4.8 | 0.00 | 0.00 | 0.00 | 41 | 1014.1 |
| 20260503203737 | 13 | 295 | 11.3 | 12.9 | 0.00 | 0.00 | 0.00 | 40 | 1014.5 |
| 20260503203234 | 14 | 56 | 1.6 | 1.6 | 0.00 | 0.00 | 0.00 | 41 | 1014.2 |
| 20260503202731 | 14 | 308 | 3.2 | 3.2 | 0.00 | 0.00 | 0.00 | 41 | 1014.4 |
| 20260503202229 | 15 | 216 | 4.8 | 4.8 | 0.00 | 0.00 | 0.00 | 40 | 1014.6 |
| 20260503201726 | 13 | 46 | 0.0 | 1.6 | 0.00 | 0.00 | 0.00 | 43 | 1014.5 |
| 20260503201223 | 14 | 302 | 4.8 | 8.0 | 0.00 | 0.00 | 0.00 | 39 | 1014.5 |
| 20260503200719 | 13 | 326 | 4.8 | 4.8 | 0.00 | 0.00 | 0.00 | 40 | 1014.4 |
| 20260503200216 | 15 | 263 | 6.4 | 8.0 | 0.00 | 0.00 | 0.00 | 39 | 1014.5 |
| 20260503195713 | 15 | 264 | 6.4 | 8.0 | 0.00 | 0.00 | 0.00 | 39 | 1014.6 |
| 20260503195210 | 14 | 357 | 1.6 | 3.2 | 0.00 | 0.00 | 0.00 | 41 | 1014.7 |
| 20260503194707 | 14 | 53 | 1.6 | 1.6 | 0.00 | 0.00 | 0.00 | 41 | 1014.8 |
| 20260503194203 | 13 | 121 | 3.2 | 3.2 | 0.00 | 0.00 | 0.00 | 40 | 1014.7 |
| 20260503193659 | 14 | 264 | 8.0 | 11.3 | 0.00 | 0.00 | 0.00 | 39 | 1015.1 |
| 20260503193155 | 14 | 303 | 3.2 | 4.8 | 0.00 | 0.00 | 0.00 | 41 | 1015.0 |
| 20260503192651 | 14 | 294 | 8.0 | 8.0 | 0.00 | 0.00 | 0.00 | 42 | 1014.9 |
| 20260503192147 | 13 | 334 | 3.2 | 4.8 | 0.00 | 0.00 | 0.00 | 42 | 1015.0 |
| 20260503191644 | 13 | 356 | 1.6 | 3.2 | 0.00 | 0.00 | 0.00 | 44 | 1015.0 |
| 20260503191141 | 13 | 293 | 4.8 | 4.8 | 0.00 | 0.00 | 0.00 | 43 | 1015.4 |
| 20260503190638 | 14 | 331 | 1.6 | 3.2 | 0.00 | 0.00 | 0.00 | 43 | 1015.4 |
| 20260503190135 | 13 | 214 | 4.8 | 4.8 | 0.00 | 0.00 | 0.00 | 42 | 1015.5 |
| 20260503185632 | 13 | 285 | 8.0 | 9.7 | 0.00 | 0.00 | 0.00 | 44 | 1015.4 |
| 20260503185126 | 13 | 284 | 8.0 | 9.7 | 0.00 | 0.00 | 0.00 | 42 | 1015.6 |
| 20260503184622 | 12 | 301 | 4.8 | 4.8 | 0.00 | 0.00 | 0.00 | 43 | 1015.7 |
| 20260503184119 | 13 | 272 | 3.2 | 4.8 | 0.00 | 0.00 | 0.00 | 43 | 1015.6 |
| 20260503183615 | 13 | 228 | 6.4 | 11.3 | 0.00 | 0.00 | 0.00 | 43 | 1015.8 |
| 20260503183113 | 14 | 180 | 4.8 | 4.8 | 0.00 | 0.00 | 0.00 | 42 | 1015.7 |
| 20260503182611 | 13 | 259 | 4.8 | 4.8 | 0.00 | 0.00 | 0.00 | 43 | 1015.8 |
| 20260503182109 | 13 | 282 | 4.8 | 4.8 | 0.00 | 0.00 | 0.00 | 41 | 1015.8 |
| 20260503181605 | 13 | 291 | 4.8 | 8.0 | 0.00 | 0.00 | 0.00 | 43 | 1015.9 |
| 20260503181102 | 13 | 357 | 3.2 | 4.8 | 0.00 | 0.00 | 0.00 | 45 | 1015.9 |
| 20260503180559 | 12 | 23 | 1.6 | 1.6 | 0.00 | 0.00 | 0.00 | 45 | 1016.0 |
| 20260503180057 | 12 | 247 | 3.2 | 4.8 | 0.00 | 0.00 | 0.00 | 45 | 1016.2 |
| 20260503175554 | 12 | 274 | 4.8 | 4.8 | 0.00 | 0.00 | 0.00 | 45 | 1015.9 |
| 20260503175051 | 13 | 260 | 6.4 | 8.0 | 0.00 | 0.00 | 0.00 | 44 | 1016.3 |
| 20260503174548 | 13 | 269 | 4.8 | 4.8 | 0.00 | 0.00 | 0.00 | 44 | 1016.1 |
| 20260503174044 | 12 | 281 | 6.4 | 8.0 | 0.00 | 0.00 | 0.00 | 43 | 1016.3 |
| 20260503173539 | 12 | 290 | 8.0 | 9.7 | 0.00 | 0.00 | 0.00 | 42 | 1016.3 |
| 20260503173036 | 13 | 83 | 3.2 | 4.8 | 0.00 | 0.00 | 0.00 | 44 | 1016.3 |
| 20260503172534 | 13 | 313 | 6.4 | 8.0 | 0.00 | 0.00 | 0.00 | 42 | 1016.5 |
| 20260503172030 | 12 | 293 | 3.2 | 4.8 | 0.00 | 0.00 | 0.00 | 45 | 1016.4 |
| 20260503171527 | 13 | 357 | 8.0 | 11.3 | 0.00 | 0.00 | 0.00 | 41 | 1016.4 |
| 20260503171024 | 11 | 15 | 3.2 | 3.2 | 0.00 | 0.00 | 0.00 | 43 | 1016.3 |
| 20260503170520 | 12 | 0 | 3.2 | 4.8 | 0.00 | 0.00 | 0.00 | 44 | 1016.8 |
| 20260503150913 | 9 | 129 | 3.2 | 4.8 | 0.00 | 0.00 | 0.00 | 48 | 1017.3 |
| 20260503150409 | 9 | 271 | 6.4 | 11.3 | 0.00 | 0.00 | 0.00 | 49 | 1017.7 |
| 20260503131303 | 5 | 283 | 3.2 | 3.2 | 0.00 | 0.00 | 0.00 | 79 | 1018.3 |
| 20260503130800 | 5 | 325 | 3.2 | 4.8 | 0.00 | 0.00 | 0.00 | 79 | 1018.1 |
| 20260503130257 | 4 | 333 | 3.2 | 3.2 | 0.00 | 0.00 | 0.00 | 81 | 1018.3 |
| 20260503120218 | 1 | 353 | 0.0 | 0.0 | 0.00 | 0.00 | 0.00 | 99 | 1017.8 |
| 20260503110645 | 0 | 355 | 0.0 | 0.0 | 0.00 | 0.00 | 0.00 | 99 | 1017.4 |
| 20260503110142 | 0 | 355 | 0.0 | 0.0 | 0.00 | 0.00 | 0.00 | 99 | 1017.4 |
| 20260503100109 | 0 | 355 | 0.0 | 0.0 | 0.00 | 0.00 | 0.00 | 99 | 1016.8 |
| 20260503081452 | 0 | 355 | 0.0 | 0.0 | 0.00 | 0.00 | 0.00 | 99 | 1016.8 |
| 20260503080949 | 0 | 355 | 0.0 | 0.0 | 0.00 | 0.00 | 0.00 | 99 | 1016.5 |
| 20260503080446 | 0 | 355 | 0.0 | 0.0 | 0.00 | 0.00 | 0.00 | 99 | 1016.8 |
| 20260503072922 | 0 | 355 | 0.0 | 0.0 | 0.00 | 0.00 | 0.00 | 99 | 1016.6 |
| 20260503072419 | 0 | 355 | 0.0 | 0.0 | 0.00 | 0.00 | 0.00 | 99 | 1016.4 |
| 20260503071916 | 0 | 355 | 0.0 | 0.0 | 0.00 | 0.00 | 0.00 | 99 | 1016.3 |
| 20260503071414 | 0 | 355 | 0.0 | 0.0 | 0.00 | 0.00 | 0.00 | 99 | 1016.4 |
| 20260503070909 | 0 | 355 | 0.0 | 0.0 | 0.00 | 0.00 | 0.00 | 99 | 1016.3 |
| 20260503070407 | 0 | 355 | 0.0 | 0.0 | 0.00 | 0.00 | 0.00 | 99 | 1016.6 |
| 20260503060333 | 0 | 355 | 0.0 | 0.0 | 0.00 | 0.00 | 0.00 | 99 | 1016.5 |
| 20260503054821 | 0 | 355 | 0.0 | 0.0 | 0.00 | 0.00 | 0.00 | 99 | 1016.6 |
| 20260503054316 | -17 | 0.0 | 0.0 | 0.00 | 0.00 | 0.00 | 1016.9 | ||
| 20260503053814 | -17 | 0.0 | 0.0 | 0.00 | 0.00 | 0.00 | 1016.4 | ||
| 20260503053313 | 0 | 355 | 0.0 | 0.0 | 0.00 | 0.00 | 0.00 | 99 | 1016.5 |
| 20260503052808 | 0 | 355 | 0.0 | 0.0 | 0.00 | 0.00 | 0.00 | 99 | 1016.6 |
| 20260503052306 | 0 | 355 | 0.0 | 0.0 | 0.00 | 0.00 | 0.00 | 99 | 1016.9 |
| 20260503051801 | 0 | 355 | 0.0 | 0.0 | 0.00 | 0.00 | 0.00 | 99 | 1016.9 |
| 20260503051258 | -17 | 0.0 | 0.0 | 0.00 | 0.00 | 0.00 | 1017.0 | ||
| 20260503050755 | 0 | 355 | 0.0 | 0.0 | 0.00 | 0.00 | 0.00 | 98 | 1017.0 |
| 20260503050251 | 0 | 355 | 0.0 | 0.0 | 0.00 | 0.00 | 0.00 | 98 | 1017.1 |
| 20260503045749 | -17 | 0.0 | 0.0 | 0.00 | 0.00 | 0.00 | 1017.0 | ||
| 20260503045247 | -17 | 0.0 | 0.0 | 0.00 | 0.00 | 0.00 | 1017.1 | ||
| 20260503044742 | -17 | 0.0 | 0.0 | 0.00 | 0.00 | 0.00 | 1017.1 | ||
| 20260503044239 | -17 | 0.0 | 0.0 | 0.00 | 0.00 | 0.00 | 1017.1 | ||
| 20260503043736 | -17 | 0.0 | 0.0 | 0.00 | 0.00 | 0.00 | 1017.0 | ||
| 20260503043228 | 0 | 355 | 0.0 | 0.0 | 0.00 | 0.13 | 0.13 | 98 | 1017.0 |
| 20260503042724 | 0 | 355 | 0.0 | 0.0 | 0.00 | 0.13 | 0.13 | 98 | 1017.0 |
| 20260503042221 | 0 | 355 | 0.0 | 0.0 | 0.00 | 0.13 | 0.13 | 98 | 1017.1 |
| 20260503041716 | 0 | 355 | 0.0 | 0.0 | 0.00 | 0.13 | 0.13 | 97 | 1016.9 |
| 20260503041215 | 0 | 355 | 0.0 | 0.0 | 0.00 | 0.13 | 0.13 | 97 | 1017.1 |
| 20260503040712 | 0 | 355 | 0.0 | 0.0 | 0.00 | 0.13 | 0.13 | 97 | 1017.1 |
| 20260503040209 | 0 | 355 | 0.0 | 0.0 | 0.00 | 0.13 | 0.13 | 97 | 1017.2 |
| 20260503035706 | 0 | 355 | 0.0 | 0.0 | 0.00 | 0.13 | 0.13 | 97 | 1017.1 |
| 20260503035203 | 0 | 355 | 0.0 | 0.0 | 0.00 | 0.13 | 0.13 | 96 | 1017.3 |
| 20260503034701 | 0 | 355 | 0.0 | 0.0 | 0.00 | 0.13 | 0.13 | 96 | 1017.1 |
| 20260503034157 | 0 | 355 | 0.0 | 0.0 | 0.00 | 0.13 | 0.13 | 96 | 1016.9 |
| 20260503033655 | 0 | 355 | 0.0 | 0.0 | 0.00 | 0.13 | 0.13 | 96 | 1017.1 |
| 20260503033152 | 0 | 355 | 0.0 | 0.0 | 0.00 | 0.13 | 0.13 | 96 | 1017.2 |
| 20260503032650 | 0 | 355 | 0.0 | 0.0 | 0.00 | 0.13 | 0.13 | 95 | 1017.2 |
| 20260503032149 | 0 | 355 | 0.0 | 0.0 | 0.00 | 0.13 | 0.13 | 95 | 1017.2 |
| 20260503031645 | 1 | 355 | 0.0 | 0.0 | 0.00 | 0.13 | 0.13 | 95 | 1017.0 |
| 20260503031143 | 1 | 355 | 0.0 | 0.0 | 0.00 | 0.13 | 0.13 | 95 | 1016.9 |
| 20260503030633 | 1 | 354 | 0.0 | 0.0 | 0.00 | 0.13 | 0.13 | 95 | 1017.0 |